Weather in Antrim

United Kingdom     54°43′00″N   6°12′15″W
temp.,
°C
wind,
m/s
gust,
m/s
humid.,
%
clouds,
%
prec.,
mm/h
press.,
hPa
HPBL,
m
11 april, sun
sun1101:00−2nnw37825 0.0 1020143
04:00−2nnw34915 0.0 102169
07:00−2nnw24925 0.0 102286
10:00+5nnw46525 0.0 10221474
13:00+6nnw564668 0.3 10231994
16:00+7nnw584397 0.1 10232373
19:00+4nnw356261 0.1 1024795
22:000nnw2283100 0.0 102521
12 april, mon
mon1201:00+1wnw1192100 0.0 102625
04:000wnw1198100 0.0 102717
07:000sw119898 0.0 102736
10:00+3sw218599 0.1 1028457
13:00+4ssw228999 0.1 1029406
16:00+7wsw3374100 0.1 10291016
19:00+6wsw0185100 0.2 102990
22:00+2nne019225 0.1 103113
13 april, tue
tue1301:00+2nnw119492 0.1 103115
04:00+4ssw119499 0.1 103119
07:00+2s119667 0.1 103215
10:00+7sw128115 0.0 1033418
13:00+10w227198 0.3 10321072
16:00+8nnw128499 0.9 1032426
19:00+8nne228870 2.0 103257
22:00+4nne229151 0.1 103415
14 april, wed
wed1401:00+2nne11895 0.1 103412
04:00+1nne11875 0.0 103412
07:00+2ne11875 0.0 103412
10:00+8sse11785 0.0 1035322
13:00+11ssw116133 0.0 10341258
16:00+11se116083 0.2 10331168
19:00+9ese248310 0.4 1034222
22:00+4e22885 0.0 103512
15 april, thu
thu1501:00+3e11861 0.0 103513
04:00+1e11860 0.0 103513
07:00+2e11844 0.0 103512
10:00+8se237013 0.0 1034502
13:00+11ese456660 0.1 10341214
16:00+11se556321 0.1 10321238
19:00+8se47731 0.2 1032584
22:00+3ese33840 0.0 103353